FW5863 Weather Reports


Display with metric or nautical units.
time (UTC)temp
F
wind
direction
speed
MPH
gust
MPH
rain 1hr
in
rain 24hr
in
rain mn
in
humidity
%
barometer
mb
20260506132002 61 50 4.0 12.0 0.01 0.01 0.01 89 1009.0
20260506131503 61 50 4.0 12.0 0.01 0.01 0.01 88 1009.0
20260506131001 61 50 5.0 12.0 0.01 0.01 0.01 88 1009.0
20260506130501 61 50 5.0 12.0 0.01 0.01 0.01 87 1009.0
20260506130004 61 50 5.0 12.0 0.00 0.00 0.00 87 1009.0
20260506125501 61 50 6.0 12.0 0.00 0.00 0.00 87 1009.1
20260506125002 62 50 6.0 11.0 0.00 0.00 0.00 86 1009.1
20260506124001 62 50 6.0 15.0 0.00 0.00 0.00 84 1009.1
20260506123501 62 50 7.0 13.0 0.00 0.00 0.00 83 1008.9
20260506122501 63 50 6.0 13.0 0.00 0.00 0.00 82 1008.8
20260506121502 63 50 6.0 11.0 0.00 0.00 0.00 81 1008.7
20260506121001 63 50 7.0 13.0 0.00 0.00 0.00 80 1008.6
20260506120502 64 50 7.0 13.0 0.00 0.00 0.00 79 1008.5
20260506120004 64 50 7.0 13.0 0.00 0.00 0.00 79 1008.5
20260506115001 64 50 8.0 15.0 0.00 0.00 0.00 78 1008.5
20260506114502 64 50 8.0 14.0 0.00 0.00 0.00 78 1008.6
20260506114001 64 50 7.0 14.0 0.00 0.00 0.00 78 1008.5
20260506113502 64 50 6.0 13.0 0.00 0.00 0.00 78 1008.4
20260506113002 64 50 6.0 13.0 0.00 0.00 0.00 78 1008.5
20260506112501 64 50 7.0 12.0 0.00 0.00 0.00 78 1008.5
20260506112001 64 50 8.0 13.0 0.00 0.00 0.00 78 1008.6
20260506111502 64 50 8.0 16.0 0.00 0.00 0.00 77 1008.5
20260506111001 64 50 7.0 16.0 0.00 0.00 0.00 77 1008.5
20260506110501 64 50 6.0 12.0 0.00 0.00 0.00 77 1008.5
20260506110004 64 50 6.0 13.0 0.00 0.00 0.00 77 1008.4
20260506105501 64 50 6.0 13.0 0.00 0.00 0.00 77 1008.3
20260506104502 64 50 6.0 13.0 0.00 0.00 0.00 76 1008.1
20260506104001 64 50 6.0 12.0 0.00 0.00 0.00 76 1008.1
20260506103501 64 50 7.0 13.0 0.00 0.00 0.00 76 1008.0
20260506102501 64 50 6.0 12.0 0.00 0.00 0.00 76 1008.0
20260506102001 64 50 5.0 12.0 0.00 0.00 0.00 76 1007.9
20260506101502 64 50 5.0 12.0 0.00 0.00 0.00 76 1007.8
20260506101001 64 50 7.0 12.0 0.00 0.00 0.00 75 1007.9
20260506100501 64 50 6.0 13.0 0.00 0.00 0.00 75 1007.9
20260506100004 64 50 6.0 13.0 0.00 0.00 0.00 75 1007.9
20260506095501 64 50 6.0 19.0 0.00 0.00 0.00 75 1007.9
20260506094503 64 50 5.0 11.0 0.00 0.00 0.00 74 1008.1
20260506094001 64 50 5.0 11.0 0.00 0.00 0.00 74 1008.1
20260506093501 64 50 5.0 10.0 0.00 0.00 0.00 74 1008.1
20260506092501 64 50 5.0 12.0 0.00 0.00 0.00 73 1008.0
20260506092002 65 50 5.0 12.0 0.00 0.00 0.00 72 1008.0
20260506091504 65 50 5.0 11.0 0.00 0.00 0.00 72 1008.1
20260506091002 65 50 6.0 13.0 0.00 0.00 0.00 72 1008.1
20260506090504 65 50 6.0 13.0 0.00 0.00 0.00 71 1008.0
20260506090005 65 50 5.0 13.0 0.00 0.04 0.00 71 1008.1
20260506085001 65 50 5.0 12.0 0.00 0.04 0.00 71 1008.1
20260506084502 65 50 5.0 11.0 0.00 0.04 0.00 71 1008.1
20260506084001 65 50 6.0 12.0 0.00 0.04 0.00 70 1008.2
20260506083501 65 50 6.0 12.0 0.00 0.04 0.00 70 1008.2
20260506083003 65 50 6.0 12.0 0.00 0.04 0.00 70 1008.2
20260506082501 65 50 5.0 13.0 0.00 0.04 0.00 69 1008.2
20260506082001 65 50 6.0 13.0 0.00 0.04 0.00 69 1008.2
20260506081502 65 50 5.0 12.0 0.00 0.04 0.00 68 1008.2
20260506081001 65 50 5.0 12.0 0.00 0.04 0.00 68 1008.2
20260506080502 66 50 5.0 11.0 0.00 0.04 0.00 68 1008.2
20260506073501 66 50 4.0 8.0 0.00 0.04 0.00 65 1008.3
20260506073003 66 50 3.0 8.0 0.00 0.04 0.00 65 1008.3
20260506072501 66 50 3.0 8.0 0.00 0.04 0.00 65 1008.4
20260506071001 66 50 4.0 9.0 0.00 0.04 0.00 64 1008.5
20260506070501 67 50 4.0 9.0 0.00 0.04 0.00 64 1008.5
20260506062501 67 50 5.0 10.0 0.00 0.04 0.00 63 1008.7
20260506062003 67 50 4.0 10.0 0.00 0.04 0.00 63 1008.8
20260506061001 67 50 5.0 11.0 0.00 0.04 0.00 62 1008.9
20260506060501 67 50 4.0 9.0 0.00 0.04 0.00 62 1009.0
20260506051003 67 50 5.0 12.0 0.00 0.04 0.00 60 1009.3
20260506050501 67 50 5.0 12.0 0.00 0.04 0.00 60 1009.4
20260506045001 67 50 3.0 8.0 0.00 0.04 0.00 60 1009.4
20260506044502 67 50 4.0 9.0 0.00 0.04 0.00 60 1009.4
20260506044001 67 50 5.0 9.0 0.00 0.04 0.00 60 1009.4
20260506043501 66 50 4.0 9.0 0.00 0.04 0.00 60 1009.3
20260506043003 66 50 4.0 9.0 0.00 0.04 0.00 60 1009.3
20260506042501 66 50 4.0 8.0 0.00 0.04 0.00 61 1009.4
20260506042001 66 50 4.0 10.0 0.00 0.04 0.00 60 1009.4
20260506041503 67 50 5.0 11.0 0.00 0.04 0.00 60 1009.4
20260506041001 67 50 4.0 11.0 0.00 0.04 0.00 61 1009.5
20260506040501 67 50 4.0 8.0 0.00 0.04 0.00 61 1009.4
20260506040004 67 50 3.0 6.0 0.00 0.04 0.04 60 1009.4
20260506035501 67 50 4.0 8.0 0.00 0.04 0.04 60 1009.3
20260506035002 67 50 3.0 8.0 0.00 0.04 0.04 60 1009.4
20260506034502 67 50 3.0 6.0 0.00 0.04 0.04 60 1009.4
20260506034001 67 50 3.0 6.0 0.00 0.04 0.04 59 1009.4
20260506033501 67 50 3.0 8.0 0.00 0.04 0.04 59 1009.4
20260506033002 67 50 4.0 8.0 0.00 0.04 0.04 59 1009.4
20260506032502 68 50 3.0 6.0 0.00 0.04 0.04 58 1009.4
20260506032001 68 50 4.0 8.0 0.00 0.04 0.04 58 1009.4
20260506031502 68 50 4.0 8.0 0.00 0.04 0.04 57 1009.4
20260506031001 68 50 3.0 8.0 0.00 0.04 0.04 57 1009.4
20260506030501 68 50 4.0 9.0 0.00 0.04 0.04 57 1009.4
20260506030004 69 50 4.0 9.0 0.00 0.04 0.04 56 1009.5
20260506025501 69 50 4.0 9.0 0.00 0.04 0.04 56 1009.4
20260506025001 69 50 5.0 10.0 0.00 0.04 0.04 55 1009.4
20260506024502 69 50 4.0 10.0 0.00 0.04 0.04 55 1009.4
20260506024001 69 50 4.0 11.0 0.00 0.04 0.04 54 1009.4
20260506023002 70 50 4.0 11.0 0.00 0.04 0.04 54 1009.5
20260506022501 70 50 4.0 11.0 0.00 0.04 0.04 53 1009.5
20260506022001 70 50 4.0 9.0 0.00 0.04 0.04 53 1009.5
20260506021502 70 50 4.0 8.0 0.00 0.04 0.04 53 1009.5
20260506020501 71 50 6.0 11.0 0.00 0.04 0.04 52 1009.4
20260506020007 71 50 6.0 11.0 0.00 0.04 0.04 52 1009.3
20260506015501 71 50 7.0 13.0 0.00 0.04 0.04 51 1009.3
20260506014502 71 50 7.0 18.0 0.00 0.04 0.04 51 1009.2
20260506013501 71 50 6.0 15.0 0.00 0.04 0.04 51 1009.3
20260506013002 71 50 5.0 11.0 0.00 0.04 0.04 51 1009.2
20260506012500 72 50 6.0 14.0 0.00 0.04 0.04 51 1009.1
20260506012001 72 50 6.0 14.0 0.00 0.04 0.04 50 1008.9
20260506011502 72 50 5.0 11.0 0.00 0.04 0.04 50 1008.9
20260506010501 72 50 5.0 10.0 0.00 0.04 0.04 49 1008.8
20260506010004 72 50 5.0 9.0 0.00 0.04 0.04 49 1008.6
20260506005501 72 50 4.0 9.0 0.00 0.04 0.04 49 1008.6
20260506005002 73 50 4.0 11.0 0.00 0.04 0.04 49 1008.5
20260506004501 73 50 5.0 11.0 0.00 0.04 0.04 49 1008.4
20260506003501 73 50 6.0 12.0 0.00 0.04 0.04 48 1008.5
20260506003002 73 50 6.0 11.0 0.00 0.04 0.04 48 1008.5
20260506002501 73 50 5.0 13.0 0.00 0.04 0.04 48 1008.4
20260506002001 73 50 6.0 13.0 0.00 0.04 0.04 48 1008.4
20260506001502 74 50 6.0 12.0 0.00 0.04 0.04 48 1008.3
20260506001001 74 50 6.0 13.0 0.00 0.04 0.04 47 1008.2
20260506000501 74 50 7.0 14.0 0.00 0.04 0.04 47 1008.1
20260506000004 74 50 7.0 14.0 0.00 0.04 0.04 46 1008.1
20260505235501 74 50 7.0 16.0 0.00 0.04 0.04 46 1008.0
20260505235001 75 50 7.0 16.0 0.00 0.04 0.04 46 1008.2
20260505234502 75 50 6.0 14.0 0.00 0.04 0.04 45 1008.1
20260505234001 75 50 7.0 14.0 0.00 0.04 0.04 45 1007.9
20260505233501 75 50 7.0 16.0 0.00 0.04 0.04 45 1007.9
20260505233002 76 50 9.0 16.0 0.00 0.04 0.04 44 1007.9
20260505232501 76 50 9.0 16.0 0.00 0.04 0.04 42 1008.0
20260505232001 76 50 9.0 22.0 0.00 0.04 0.04 43 1007.9
20260505231503 76 50 8.0 22.0 0.00 0.04 0.04 43 1007.7
20260505231001 76 50 7.0 17.0 0.00 0.04 0.04 43 1007.8
20260505230501 76 50 7.0 17.0 0.00 0.04 0.04 43 1007.8
20260505230004 77 177 8.0 16.0 0.00 0.04 0.04 42 1007.7
20260505225501 77 205 9.0 16.0 0.00 0.04 0.04 41 1007.7
20260505225001 77 202 9.0 20.0 0.00 0.04 0.04 41 1007.7
20260505224502 77 157 11.0 21.0 0.00 0.04 0.04 41 1007.7
20260505224001 78 191 11.0 21.0 0.00 0.04 0.04 41 1007.7
20260505223501 78 184 12.0 21.0 0.00 0.04 0.04 41 1007.6
20260505223002 78 198 12.0 21.0 0.00 0.04 0.04 40 1007.5
20260505222001 79 209 10.0 21.0 0.00 0.04 0.04 41 1007.7
20260505221502 79 167 10.0 21.0 0.00 0.04 0.04 40 1007.6
20260505220006 79 192 10.0 23.0 0.00 0.04 0.04 40 1007.4
20260505215501 79 192 12.0 23.0 0.00 0.04 0.04 40 1007.4
20260505215001 79 218 12.0 23.0 0.00 0.04 0.04 40 1007.4
20260505214502 79 173 12.0 23.0 0.00 0.04 0.04 40 1007.3
20260505214001 79 257 12.0 22.0 0.00 0.04 0.04 40 1007.4
20260505212501 79 245 11.0 21.0 0.00 0.04 0.04 41 1007.5
20260505212001 79 191 11.0 17.0 0.00 0.04 0.04 40 1007.5
20260505211502 79 240 12.0 25.0 0.00 0.04 0.04 40 1007.4
20260505211001 79 210 12.0 25.0 0.00 0.04 0.04 39 1007.6
20260505210501 79 175 12.0 26.0 0.00 0.04 0.04 40 1007.4
20260505210006 79 228 14.0 26.0 0.00 0.04 0.04 40 1007.4
20260505205501 79 181 13.0 29.0 0.00 0.04 0.04 38 1007.4
20260505205001 79 231 13.0 21.0 0.00 0.04 0.04 39 1007.4
20260505204502 79 234 13.0 24.0 0.00 0.04 0.04 38 1007.4
20260505203501 79 172 12.0 22.0 0.00 0.04 0.04 40 1007.4
20260505203002 79 223 12.0 22.0 0.00 0.04 0.04 41 1007.3
20260505202501 79 196 12.0 24.0 0.00 0.04 0.04 41 1007.5
20260505202001 80 221 11.0 24.0 0.00 0.04 0.04 40 1007.6
20260505201001 80 224 10.0 25.0 0.00 0.04 0.04 45 1007.4
20260505200501 80 213 10.0 25.0 0.00 0.04 0.04 40 1007.3
20260505195501 80 224 13.0 27.0 0.00 0.04 0.04 42 1007.6
20260505195001 80 266 12.0 24.0 0.00 0.04 0.04 46 1007.6
20260505194504 80 217 12.0 24.0 0.00 0.04 0.04 43 1007.6
20260505194001 79 159 11.0 23.0 0.00 0.04 0.04 45 1007.6
20260505193502 79 164 9.0 19.0 0.00 0.04 0.04 45 1007.6
20260505193002 79 193 9.0 20.0 0.00 0.04 0.04 45 1007.8
20260505192001 80 224 12.0 23.0 0.00 0.04 0.04 42 1007.8
20260505191502 80 236 14.0 26.0 0.00 0.04 0.04 39 1007.8
20260505191001 80 228 14.0 26.0 0.00 0.04 0.04 39 1007.8
20260505190501 81 228 12.0 21.0 0.00 0.04 0.04 38 1007.9
20260505190004 81 209 13.0 23.0 0.00 0.04 0.04 38 1007.9
20260505185501 80 221 12.0 23.0 0.00 0.04 0.04 39 1008.0
20260505185001 80 178 12.0 21.0 0.00 0.04 0.04 37 1008.1
20260505184502 80 213 14.0 21.0 0.00 0.04 0.04 39 1008.2
20260505184001 79 221 18.0 30.0 0.00 0.04 0.04 38 1008.2
20260505183501 79 263 18.0 30.0 0.00 0.04 0.04 37 1008.3
20260505183002 80 252 15.0 30.0 0.00 0.04 0.04 35 1008.3
20260505182501 80 236 14.0 30.0 0.00 0.04 0.04 39 1008.5
20260505182001 80 223 14.0 32.0 0.00 0.04 0.04 36 1008.5
20260505181502 80 227 14.0 26.0 0.00 0.04 0.04 38 1008.5
20260505180501 79 211 15.0 27.0 0.00 0.04 0.04 41 1008.6
20260505180002 80 250 11.0 27.0 0.00 0.04 0.04 38 1008.5
20260505175501 80 244 12.0 26.0 0.00 0.04 0.04 40 1008.6
20260505174502 80 195 12.0 23.0 0.00 0.04 0.04 42 1008.9
20260505174001 79 227 13.0 21.0 0.00 0.04 0.04 43 1008.9
20260505173501 79 228 13.0 23.0 0.00 0.04 0.04 42 1008.9
20260505173002 79 194 14.0 26.0 0.00 0.04 0.04 42 1009.0
20260505172501 79 221 16.0 33.0 0.00 0.04 0.04 40 1009.0
20260505171502 79 216 13.0 33.0 0.00 0.04 0.04 41 1009.1
20260505171001 78 236 11.0 18.0 0.00 0.04 0.04 47 1009.0
20260505170501 78 246 11.0 21.0 0.00 0.04 0.04 44 1009.1
20260505170006 77 233 11.0 19.0 0.00 0.04 0.04 47 1009.1
20260505165501 77 259 10.0 18.0 0.00 0.04 0.04 47 1009.2
20260505165001 78 234 11.0 20.0 0.00 0.04 0.04 49 1009.4
20260505164502 78 260 10.0 20.0 0.00 0.04 0.04 48 1009.4
20260505164001 78 250 9.0 19.0 0.00 0.04 0.04 47 1009.5
20260505163501 77 223 9.0 18.0 0.00 0.04 0.04 52 1009.6
20260505163002 77 214 10.0 18.0 0.00 0.04 0.04 50 1009.6
20260505162501 76 217 10.0 19.0 0.00 0.04 0.04 52 1009.7
20260505162001 76 257 11.0 19.0 0.00 0.04 0.04 51 1009.8
20260505161001 76 279 10.0 20.0 0.00 0.04 0.04 51 1009.7
20260505160501 75 232 12.0 19.0 0.00 0.04 0.04 54 1009.8
20260505153003 74 218 8.0 16.0 0.00 0.04 0.04 55 1010.2
20260505152501 74 217 8.0 15.0 0.00 0.04 0.04 59 1010.1
20260505152001 74 256 7.0 16.0 0.00 0.04 0.04 57 1010.2
20260505151502 73 255 8.0 16.0 0.00 0.04 0.04 57 1010.2
20260505151001 73 250 8.0 14.0 0.00 0.04 0.04 57 1010.3
20260505150501 72 257 8.0 16.0 0.00 0.04 0.04 57 1010.4